| time (UTC) | temp C | wind direction | speed KPH | gust KPH | rain 1hr cm | rain 24hr cm | rain mn cm | humidity % | barometer mb |
| 20260506124410 | 15 | 180 | 9.7 | 11.3 | 0.00 | 0.00 | 3.23 | 68 | 1009.8 |
| 20260506124210 | 16 | 173 | 6.4 | 12.9 | 0.00 | 0.00 | 3.23 | 67 | 1009.8 |
| 20260506124017 | 16 | 193 | 9.7 | 12.9 | 0.00 | 0.00 | 3.23 | 67 | 1009.8 |
| 20260506123810 | 16 | 172 | 6.4 | 11.3 | 0.00 | 0.00 | 3.23 | 69 | 1009.8 |
| 20260506123611 | 16 | 182 | 8.0 | 11.3 | 0.00 | 0.00 | 3.23 | 67 | 1009.8 |
| 20260506123410 | 16 | 101 | 4.8 | 12.9 | 0.00 | 0.00 | 3.23 | 67 | 1009.8 |
| 20260506123210 | 16 | 196 | 9.7 | 14.5 | 0.00 | 0.00 | 3.23 | 67 | 1009.8 |
| 20260506123025 | 16 | 179 | 6.4 | 9.7 | 0.00 | 0.00 | 3.23 | 67 | 1009.8 |
| 20260506122810 | 16 | 207 | 9.7 | 11.3 | 0.00 | 0.00 | 3.23 | 67 | 1009.8 |
| 20260506122610 | 16 | 180 | 6.4 | 12.9 | 0.00 | 0.00 | 3.23 | 69 | 1009.8 |
| 20260506122210 | 16 | 195 | 12.9 | 14.5 | 0.00 | 0.00 | 3.23 | 69 | 1009.8 |
| 20260506122016 | 16 | 176 | 6.4 | 9.7 | 0.00 | 0.00 | 3.23 | 69 | 1009.8 |
| 20260506121810 | 16 | 165 | 4.8 | 17.7 | 0.00 | 0.00 | 3.23 | 70 | 1009.8 |
| 20260506121610 | 16 | 197 | 6.4 | 14.5 | 0.00 | 0.00 | 3.23 | 73 | 1010.2 |
| 20260506121410 | 16 | 133 | 8.0 | 12.9 | 0.00 | 0.00 | 3.23 | 71 | 1009.8 |
| 20260506121210 | 16 | 197 | 4.8 | 14.5 | 0.00 | 0.00 | 3.23 | 70 | 1009.8 |
| 20260506120810 | 15 | 158 | 6.4 | 14.5 | 0.00 | 0.00 | 3.23 | 77 | 1009.8 |
| 20260506120610 | 15 | 163 | 12.9 | 12.9 | 0.00 | 0.00 | 3.23 | 76 | 1009.8 |
| 20260506120210 | 15 | 181 | 8.0 | 12.9 | 0.00 | 0.00 | 3.23 | 78 | 1010.2 |
| 20260506120034 | 15 | 149 | 8.0 | 9.7 | 0.00 | 0.00 | 3.23 | 77 | 1009.8 |
| 20260506115810 | 15 | 174 | 6.4 | 9.7 | 0.00 | 0.00 | 3.23 | 78 | 1009.8 |
| 20260506115410 | 15 | 166 | 6.4 | 11.3 | 0.00 | 0.00 | 3.23 | 79 | 1009.8 |
| 20260506115210 | 15 | 172 | 11.3 | 12.9 | 0.00 | 0.00 | 3.23 | 79 | 1010.2 |
| 20260506114810 | 15 | 206 | 8.0 | 11.3 | 0.00 | 0.00 | 3.23 | 77 | 1009.8 |
| 20260506114610 | 15 | 189 | 4.8 | 17.7 | 0.00 | 0.00 | 3.23 | 77 | 1009.8 |
| 20260506114211 | 14 | 175 | 6.4 | 12.9 | 0.00 | 0.00 | 3.23 | 80 | 1009.8 |
| 20260506114017 | 14 | 137 | 6.4 | 9.7 | 0.00 | 0.00 | 3.23 | 79 | 1009.8 |
| 20260506113810 | 14 | 163 | 4.8 | 14.5 | 0.00 | 0.00 | 3.23 | 78 | 1010.2 |
| 20260506113610 | 14 | 186 | 6.4 | 12.9 | 0.00 | 0.00 | 3.23 | 79 | 1009.8 |
| 20260506113410 | 14 | 157 | 6.4 | 14.5 | 0.00 | 0.00 | 3.23 | 80 | 1009.8 |
| 20260506113210 | 14 | 178 | 4.8 | 14.5 | 0.00 | 0.00 | 3.23 | 81 | 1010.2 |
| 20260506113025 | 14 | 194 | 6.4 | 12.9 | 0.00 | 0.00 | 3.23 | 82 | 1010.2 |
| 20260506112809 | 14 | 189 | 8.0 | 9.7 | 0.00 | 0.00 | 3.23 | 79 | 1009.8 |
| 20260506112610 | 13 | 192 | 8.0 | 12.9 | 0.00 | 0.00 | 3.23 | 80 | 1010.2 |
| 20260506112410 | 13 | 181 | 6.4 | 12.9 | 0.00 | 0.00 | 3.23 | 82 | 1010.2 |
| 20260506112016 | 13 | 180 | 6.4 | 9.7 | 0.00 | 0.00 | 3.23 | 81 | 1009.8 |
| 20260506111809 | 13 | 172 | 6.4 | 12.9 | 0.00 | 0.00 | 3.23 | 82 | 1010.2 |
| 20260506111610 | 13 | 180 | 6.4 | 8.0 | 0.00 | 0.00 | 3.23 | 80 | 1009.8 |
| 20260506111410 | 13 | 194 | 8.0 | 11.3 | 0.00 | 0.00 | 3.23 | 81 | 1010.2 |
| 20260506111210 | 13 | 134 | 9.7 | 14.5 | 0.00 | 0.00 | 3.23 | 81 | 1010.2 |
| 20260506110810 | 13 | 181 | 6.4 | 12.9 | 0.00 | 0.00 | 3.23 | 83 | 1010.2 |
| 20260506110610 | 13 | 174 | 6.4 | 12.9 | 0.00 | 0.00 | 3.23 | 81 | 1010.2 |
| 20260506110410 | 13 | 188 | 8.0 | 14.5 | 0.00 | 0.00 | 3.23 | 82 | 1010.2 |
| 20260506110210 | 13 | 191 | 6.4 | 14.5 | 0.00 | 0.00 | 3.23 | 83 | 1010.2 |
| 20260506105811 | 13 | 190 | 6.4 | 14.5 | 0.00 | 0.00 | 3.23 | 84 | 1009.8 |
| 20260506105610 | 13 | 177 | 4.8 | 14.5 | 0.00 | 0.00 | 3.23 | 83 | 1009.8 |
| 20260506105211 | 13 | 162 | 6.4 | 9.7 | 0.00 | 0.00 | 3.23 | 84 | 1009.8 |
| 20260506105016 | 13 | 180 | 6.4 | 14.5 | 0.00 | 0.00 | 3.23 | 85 | 1010.2 |
| 20260506104810 | 13 | 190 | 9.7 | 11.3 | 0.00 | 0.00 | 3.23 | 85 | 1009.8 |
| 20260506104410 | 13 | 168 | 4.8 | 11.3 | 0.00 | 0.00 | 3.23 | 86 | 1009.8 |
| 20260506104210 | 13 | 194 | 9.7 | 12.9 | 0.00 | 0.00 | 3.23 | 86 | 1010.2 |
| 20260506103810 | 12 | 212 | 12.9 | 14.5 | 0.00 | 0.00 | 3.23 | 87 | 1009.8 |
| 20260506103610 | 12 | 169 | 8.0 | 11.3 | 0.00 | 0.00 | 3.23 | 87 | 1009.8 |
| 20260506103410 | 12 | 193 | 9.7 | 12.9 | 0.00 | 0.00 | 3.23 | 88 | 1010.2 |
| 20260506103211 | 12 | 162 | 4.8 | 9.7 | 0.00 | 0.00 | 3.23 | 88 | 1009.8 |
| 20260506103026 | 12 | 183 | 8.0 | 9.7 | 0.00 | 0.00 | 3.23 | 87 | 1009.8 |
| 20260506102610 | 12 | 157 | 4.8 | 14.5 | 0.00 | 0.00 | 3.23 | 87 | 1010.2 |
| 20260506102411 | 12 | 164 | 6.4 | 14.5 | 0.00 | 0.00 | 3.23 | 87 | 1009.8 |
| 20260506102017 | 12 | 172 | 9.7 | 11.3 | 0.00 | 0.00 | 3.23 | 90 | 1009.8 |
| 20260506101810 | 12 | 204 | 9.7 | 12.9 | 0.00 | 0.00 | 3.23 | 89 | 1009.8 |
| 20260506101610 | 12 | 207 | 9.7 | 12.9 | 0.00 | 0.00 | 3.23 | 88 | 1009.8 |
| 20260506101410 | 12 | 179 | 8.0 | 17.7 | 0.00 | 0.00 | 3.23 | 89 | 1009.8 |
| 20260506101210 | 12 | 121 | 3.2 | 11.3 | 0.00 | 0.00 | 3.23 | 89 | 1009.8 |
| 20260506101017 | 12 | 174 | 4.8 | 11.3 | 0.00 | 0.00 | 3.23 | 89 | 1009.8 |
| 20260506100810 | 12 | 207 | 9.7 | 12.9 | 0.00 | 0.00 | 3.23 | 91 | 1009.5 |
| 20260506100610 | 12 | 175 | 9.7 | 11.3 | 0.00 | 0.00 | 3.23 | 90 | 1009.8 |
| 20260506100410 | 12 | 205 | 8.0 | 12.9 | 0.00 | 0.00 | 3.23 | 90 | 1009.8 |
| 20260506100210 | 12 | 176 | 6.4 | 12.9 | 0.00 | 0.00 | 3.23 | 91 | 1009.8 |
| 20260506100038 | 12 | 182 | 8.0 | 12.9 | 0.00 | 0.00 | 3.23 | 91 | 1009.8 |
| 20260506095411 | 12 | 176 | 8.0 | 12.9 | 0.00 | 0.00 | 3.23 | 91 | 1009.8 |
| 20260506095210 | 12 | 186 | 9.7 | 17.7 | 0.00 | 0.00 | 3.23 | 92 | 1009.8 |
| 20260506095016 | 12 | 215 | 6.4 | 19.3 | 0.00 | 0.00 | 3.23 | 91 | 1009.8 |
| 20260506094410 | 11 | 181 | 8.0 | 14.5 | 0.00 | 0.00 | 3.23 | 92 | 1009.8 |
| 20260506094211 | 11 | 181 | 9.7 | 11.3 | 0.00 | 0.00 | 3.23 | 92 | 1009.8 |
| 20260506093810 | 11 | 156 | 6.4 | 12.9 | 0.00 | 0.00 | 3.23 | 93 | 1009.8 |
| 20260506093610 | 11 | 195 | 8.0 | 9.7 | 0.00 | 0.00 | 3.23 | 93 | 1009.8 |
| 20260506093409 | 11 | 159 | 6.4 | 9.7 | 0.00 | 0.00 | 3.23 | 93 | 1009.8 |
| 20260506093210 | 11 | 164 | 4.8 | 9.7 | 0.00 | 0.00 | 3.23 | 93 | 1009.8 |
| 20260506093024 | 11 | 155 | 6.4 | 12.9 | 0.00 | 0.00 | 3.23 | 93 | 1009.5 |
| 20260506092810 | 11 | 138 | 4.8 | 12.9 | 0.00 | 0.00 | 3.23 | 94 | 1009.8 |
| 20260506092609 | 11 | 185 | 4.8 | 12.9 | 0.00 | 0.00 | 3.23 | 93 | 1009.5 |
| 20260506092410 | 11 | 195 | 11.3 | 12.9 | 0.00 | 0.00 | 3.23 | 93 | 1009.5 |
| 20260506092210 | 11 | 192 | 6.4 | 12.9 | 0.00 | 0.00 | 3.23 | 93 | 1009.8 |
| 20260506092016 | 11 | 178 | 6.4 | 20.9 | 0.00 | 0.00 | 3.23 | 95 | 1009.8 |
| 20260506091810 | 11 | 191 | 9.7 | 17.7 | 0.00 | 0.00 | 3.23 | 94 | 1009.8 |
| 20260506091410 | 11 | 213 | 6.4 | 12.9 | 0.00 | 0.00 | 3.23 | 95 | 1009.8 |
| 20260506091210 | 11 | 185 | 6.4 | 12.9 | 0.00 | 0.00 | 3.23 | 95 | 1009.8 |
| 20260506091016 | 10 | 188 | 9.7 | 12.9 | 0.00 | 0.00 | 3.23 | 95 | 1009.5 |
| 20260506090810 | 10 | 177 | 9.7 | 12.9 | 0.00 | 0.00 | 3.23 | 95 | 1009.8 |
| 20260506090610 | 10 | 191 | 6.4 | 14.5 | 0.00 | 0.00 | 3.23 | 96 | 1009.8 |
| 20260506090410 | 10 | 204 | 8.0 | 14.5 | 0.00 | 0.00 | 3.23 | 97 | 1009.5 |
| 20260506090211 | 10 | 164 | 6.4 | 14.5 | 0.00 | 0.00 | 3.23 | 97 | 1009.8 |
| 20260506085811 | 10 | 183 | 11.3 | 14.5 | 0.00 | 0.00 | 3.23 | 96 | 1009.5 |
| 20260506085409 | 10 | 190 | 6.4 | 20.9 | 0.00 | 0.00 | 3.23 | 97 | 1009.5 |
| 20260506085210 | 10 | 165 | 6.4 | 9.7 | 0.00 | 0.00 | 3.23 | 97 | 1009.8 |
| 20260506085018 | 10 | 150 | 4.8 | 11.3 | 0.00 | 0.00 | 3.23 | 98 | 1009.8 |
| 20260506084610 | 10 | 181 | 8.0 | 11.3 | 0.00 | 0.00 | 3.23 | 97 | 1009.5 |
| 20260506084410 | 10 | 171 | 6.4 | 9.7 | 0.00 | 0.00 | 3.23 | 97 | 1009.8 |
| 20260506084210 | 10 | 178 | 8.0 | 9.7 | 0.00 | 0.00 | 3.23 | 97 | 1009.5 |
| 20260506084017 | 10 | 176 | 9.7 | 14.5 | 0.00 | 0.00 | 3.23 | 97 | 1009.8 |
| 20260506083610 | 10 | 173 | 8.0 | 12.9 | 0.00 | 0.00 | 3.23 | 97 | 1009.8 |
| 20260506083410 | 9 | 164 | 9.7 | 19.3 | 0.00 | 0.00 | 3.23 | 97 | 1009.5 |
| 20260506083210 | 9 | 131 | 11.3 | 14.5 | 0.00 | 0.00 | 3.23 | 97 | 1009.5 |
| 20260506083024 | 9 | 167 | 9.7 | 12.9 | 0.00 | 0.00 | 3.23 | 97 | 1009.5 |
| 20260506082810 | 9 | 154 | 4.8 | 14.5 | 0.00 | 0.00 | 3.23 | 97 | 1009.5 |
| 20260506082411 | 9 | 174 | 9.7 | 12.9 | 0.00 | 0.00 | 3.23 | 97 | 1009.5 |
| 20260506082018 | 9 | 193 | 8.0 | 11.3 | 0.00 | 0.00 | 3.23 | 97 | 1009.5 |
| 20260506081810 | 9 | 178 | 11.3 | 11.3 | 0.00 | 0.00 | 3.23 | 97 | 1009.5 |
| 20260506081611 | 9 | 185 | 8.0 | 12.9 | 0.00 | 0.00 | 3.23 | 97 | 1009.1 |
| 20260506081016 | 9 | 119 | 8.0 | 12.9 | 0.00 | 0.00 | 3.23 | 98 | 1009.1 |
| 20260506080810 | 9 | 169 | 8.0 | 12.9 | 0.00 | 0.00 | 3.23 | 98 | 1009.1 |
| 20260506080610 | 9 | 121 | 9.7 | 16.1 | 0.00 | 0.00 | 3.23 | 98 | 1009.5 |
| 20260506080410 | 9 | 157 | 6.4 | 14.5 | 0.00 | 0.00 | 3.23 | 98 | 1009.5 |
| 20260506080211 | 9 | 191 | 11.3 | 12.9 | 0.00 | 0.00 | 3.23 | 98 | 1009.5 |
| 20260506073210 | 9 | 195 | 8.0 | 14.5 | 0.00 | 0.00 | 3.23 | 99 | 1009.1 |
| 20260506073024 | 9 | 174 | 8.0 | 12.9 | 0.00 | 0.00 | 3.23 | 99 | 1009.1 |
| 20260506072810 | 9 | 173 | 8.0 | 11.3 | 0.00 | 0.00 | 3.23 | 99 | 1009.1 |
| 20260506072410 | 9 | 184 | 6.4 | 9.7 | 0.00 | 0.00 | 3.23 | 99 | 1008.8 |
| 20260506072210 | 9 | 167 | 8.0 | 11.3 | 0.00 | 0.00 | 3.23 | 99 | 1009.1 |
| 20260506072019 | 9 | 177 | 6.4 | 12.9 | 0.00 | 0.00 | 3.23 | 99 | 1009.1 |
| 20260506071810 | 9 | 190 | 8.0 | 14.5 | 0.00 | 0.00 | 3.23 | 99 | 1008.8 |
| 20260506071612 | 9 | 189 | 9.7 | 11.3 | 0.00 | 0.00 | 3.23 | 99 | 1009.1 |
| 20260506071410 | 9 | 180 | 9.7 | 12.9 | 0.00 | 0.00 | 3.23 | 99 | 1008.8 |
| 20260506071210 | 9 | 189 | 8.0 | 12.9 | 0.00 | 0.00 | 3.23 | 99 | 1008.5 |
| 20260506070810 | 9 | 175 | 6.4 | 17.7 | 0.00 | 0.00 | 3.23 | 99 | 1008.8 |
| 20260506070610 | 9 | 163 | 8.0 | 11.3 | 0.00 | 0.00 | 3.23 | 99 | 1008.8 |
| 20260506070411 | 9 | 192 | 11.3 | 12.9 | 0.00 | 0.00 | 3.23 | 99 | 1008.5 |
| 20260506070211 | 9 | 148 | 6.4 | 9.7 | 0.00 | 0.00 | 3.23 | 99 | 1008.8 |
| 20260506062411 | 9 | 185 | 6.4 | 14.5 | 0.00 | 0.00 | 3.23 | 99 | 1008.5 |
| 20260506062210 | 9 | 183 | 9.7 | 12.9 | 0.00 | 0.00 | 3.23 | 99 | 1008.5 |
| 20260506062016 | 9 | 178 | 6.4 | 11.3 | 0.00 | 0.00 | 3.23 | 99 | 1008.5 |
| 20260506061810 | 9 | 204 | 8.0 | 11.3 | 0.00 | 0.00 | 3.23 | 99 | 1008.1 |
| 20260506061610 | 9 | 197 | 9.7 | 11.3 | 0.00 | 0.00 | 3.23 | 99 | 1008.5 |
| 20260506061410 | 9 | 187 | 9.7 | 12.9 | 0.05 | 0.00 | 3.23 | 99 | 1008.5 |
| 20260506061210 | 9 | 180 | 12.9 | 22.5 | 0.05 | 0.00 | 3.23 | 99 | 1008.1 |
| 20260506061017 | 9 | 222 | 8.0 | 12.9 | 0.05 | 0.00 | 3.23 | 99 | 1008.5 |
| 20260506060809 | 9 | 184 | 9.7 | 12.9 | 0.05 | 0.00 | 3.23 | 99 | 1008.5 |
| 20260506060610 | 9 | 187 | 8.0 | 12.9 | 0.05 | 0.00 | 3.23 | 99 | 1008.1 |
| 20260506060410 | 9 | 179 | 8.0 | 12.9 | 0.05 | 0.00 | 3.23 | 99 | 1008.1 |
| 20260506060210 | 9 | 179 | 6.4 | 12.9 | 0.05 | 0.00 | 3.23 | 99 | 1008.1 |
| 20260506051410 | 9 | 163 | 9.7 | 14.5 | 0.00 | 0.00 | 3.23 | 99 | 1007.5 |
| 20260506051210 | 9 | 175 | 8.0 | 14.5 | 0.00 | 0.00 | 3.23 | 99 | 1007.8 |
| 20260506050810 | 9 | 179 | 9.7 | 12.9 | 0.00 | 0.00 | 3.23 | 99 | 1007.8 |
| 20260506050610 | 9 | 179 | 8.0 | 11.3 | 0.00 | 0.00 | 3.23 | 99 | 1007.8 |
| 20260506050410 | 9 | 182 | 8.0 | 11.3 | 0.05 | 0.00 | 3.23 | 99 | 1007.8 |
| 20260506050210 | 9 | 133 | 3.2 | 11.3 | 0.05 | 0.00 | 3.23 | 99 | 1007.5 |
| 20260506045016 | 10 | 172 | 8.0 | 14.5 | 0.00 | 0.00 | 3.23 | 99 | 1007.8 |
| 20260506044810 | 10 | 183 | 4.8 | 9.7 | 0.00 | 0.00 | 3.23 | 99 | 1007.5 |
| 20260506044611 | 10 | 174 | 6.4 | 9.7 | 0.05 | 0.00 | 3.23 | 99 | 1007.8 |
| 20260506044410 | 10 | 178 | 8.0 | 11.3 | 0.05 | 0.00 | 3.23 | 99 | 1007.5 |
| 20260506044017 | 10 | 186 | 9.7 | 14.5 | 0.05 | 0.00 | 3.23 | 99 | 1007.5 |
| 20260506043810 | 10 | 191 | 8.0 | 11.3 | 0.05 | 0.00 | 3.23 | 99 | 1007.5 |
| 20260506043611 | 10 | 184 | 8.0 | 11.3 | 0.00 | 0.00 | 2.57 | 99 | 1007.8 |
| 20260506043410 | 10 | 155 | 6.4 | 11.3 | 0.00 | 0.00 | 2.57 | 99 | 1007.5 |
| 20260506043211 | 10 | 181 | 8.0 | 9.7 | 0.00 | 0.00 | 2.57 | 99 | 1007.5 |
| 20260506043024 | 10 | 175 | 6.4 | 11.3 | 0.00 | 0.00 | 2.57 | 99 | 1007.8 |
| 20260506042610 | 10 | 171 | 9.7 | 12.9 | 0.00 | 0.00 | 2.57 | 99 | 1007.5 |
| 20260506042210 | 10 | 169 | 6.4 | 11.3 | 0.00 | 0.00 | 2.57 | 99 | 1007.8 |
| 20260506041810 | 10 | 187 | 6.4 | 11.3 | 0.00 | 0.00 | 2.57 | 99 | 1007.8 |
| 20260506041610 | 10 | 175 | 9.7 | 9.7 | 0.05 | 0.00 | 2.57 | 99 | 1007.8 |
| 20260506041410 | 10 | 171 | 9.7 | 12.9 | 0.05 | 0.00 | 2.57 | 99 | 1007.5 |
| 20260506041210 | 10 | 178 | 9.7 | 11.3 | 0.05 | 0.00 | 2.57 | 99 | 1007.5 |
| 20260506041015 | 10 | 185 | 8.0 | 11.3 | 0.05 | 0.00 | 2.57 | 99 | 1007.5 |
| 20260506040810 | 10 | 175 | 8.0 | 12.9 | 0.05 | 0.00 | 2.57 | 99 | 1007.5 |
| 20260506040610 | 10 | 175 | 9.7 | 12.9 | 0.00 | 0.00 | 2.57 | 99 | 1007.8 |
| 20260506040410 | 10 | 170 | 8.0 | 11.3 | 0.00 | 0.00 | 2.57 | 99 | 1007.8 |
| 20260506040210 | 10 | 179 | 9.7 | 11.3 | 0.00 | 0.00 | 2.57 | 99 | 1007.5 |
| 20260506035810 | 10 | 183 | 8.0 | 11.3 | 0.00 | 0.00 | 2.57 | 99 | 1007.5 |
| 20260506035610 | 10 | 180 | 9.7 | 11.3 | 0.00 | 0.00 | 2.57 | 99 | 1007.5 |
| 20260506035210 | 10 | 177 | 8.0 | 11.3 | 0.00 | 0.00 | 2.57 | 99 | 1007.5 |
| 20260506035016 | 10 | 167 | 9.7 | 12.9 | 0.00 | 0.00 | 2.57 | 99 | 1007.8 |
| 20260506034810 | 10 | 165 | 12.9 | 12.9 | 0.00 | 0.00 | 2.57 | 99 | 1007.5 |
| 20260506034611 | 10 | 180 | 8.0 | 9.7 | 0.00 | 0.00 | 2.57 | 99 | 1007.5 |
| 20260506034210 | 10 | 174 | 8.0 | 12.9 | 0.00 | 0.00 | 2.57 | 99 | 1007.5 |
| 20260506034015 | 10 | 184 | 9.7 | 12.9 | 0.00 | 0.00 | 2.57 | 99 | 1007.5 |
| 20260506033810 | 10 | 182 | 9.7 | 9.7 | 0.00 | 0.00 | 2.57 | 99 | 1007.5 |
| 20260506033610 | 10 | 183 | 6.4 | 11.3 | 0.00 | 0.00 | 2.57 | 99 | 1007.5 |
| 20260506033410 | 10 | 175 | 9.7 | 12.9 | 0.00 | 0.00 | 2.57 | 99 | 1007.5 |
| 20260506033024 | 10 | 181 | 9.7 | 11.3 | 0.05 | 0.00 | 2.57 | 99 | 1007.5 |
| 20260506032810 | 10 | 174 | 9.7 | 12.9 | 0.05 | 0.00 | 2.57 | 99 | 1007.5 |
| 20260506032610 | 10 | 185 | 8.0 | 12.9 | 0.05 | 0.00 | 2.57 | 99 | 1007.5 |
| 20260506032411 | 10 | 178 | 9.7 | 11.3 | 0.05 | 0.00 | 2.57 | 99 | 1007.5 |
| 20260506032015 | 10 | 180 | 9.7 | 14.5 | 0.00 | 0.00 | 2.57 | 99 | 1007.5 |
| 20260506031810 | 10 | 183 | 8.0 | 11.3 | 0.00 | 0.00 | 2.57 | 99 | 1007.5 |
| 20260506031610 | 10 | 174 | 6.4 | 12.9 | 0.00 | 0.00 | 2.57 | 99 | 1007.5 |
| 20260506031210 | 10 | 164 | 6.4 | 12.9 | 0.00 | 0.00 | 2.57 | 99 | 1007.5 |
| 20260506030811 | 10 | 193 | 9.7 | 12.9 | 0.00 | 0.00 | 2.57 | 99 | 1007.5 |
| 20260506030410 | 10 | 179 | 8.0 | 11.3 | 0.00 | 0.00 | 2.57 | 99 | 1007.5 |
| 20260506030210 | 10 | 172 | 9.7 | 9.7 | 0.05 | 0.00 | 2.57 | 99 | 1007.8 |
| 20260506030033 | 10 | 180 | 8.0 | 12.9 | 0.05 | 0.00 | 2.57 | 99 | 1007.5 |
| 20260506025810 | 10 | 184 | 9.7 | 9.7 | 0.05 | 0.00 | 2.57 | 99 | 1007.8 |
| 20260506025611 | 10 | 182 | 9.7 | 12.9 | 0.05 | 0.00 | 2.57 | 99 | 1007.5 |
| 20260506025410 | 10 | 173 | 8.0 | 11.3 | 0.05 | 0.00 | 2.57 | 99 | 1007.5 |
| 20260506025210 | 10 | 166 | 9.7 | 11.3 | 0.00 | 0.00 | 2.57 | 99 | 1007.5 |
| 20260506025017 | 10 | 166 | 8.0 | 11.3 | 0.05 | 0.00 | 2.57 | 99 | 1007.5 |
| 20260506024809 | 10 | 173 | 9.7 | 12.9 | 0.05 | 0.00 | 2.57 | 99 | 1007.5 |
| 20260506024610 | 10 | 178 | 9.7 | 11.3 | 0.05 | 0.00 | 2.57 | 99 | 1007.5 |
| 20260506024410 | 10 | 178 | 9.7 | 11.3 | 0.05 | 0.00 | 2.57 | 99 | 1007.5 |
| 20260506024210 | 10 | 179 | 9.7 | 11.3 | 0.05 | 0.00 | 2.57 | 99 | 1007.5 |
| 20260506024016 | 10 | 174 | 9.7 | 12.9 | 0.05 | 0.00 | 2.57 | 99 | 1007.8 |
| 20260506023610 | 10 | 180 | 9.7 | 11.3 | 0.05 | 0.00 | 2.57 | 99 | 1007.5 |
| 20260506023410 | 10 | 178 | 9.7 | 12.9 | 0.05 | 0.00 | 2.57 | 99 | 1007.5 |
| 20260506023025 | 10 | 177 | 6.4 | 12.9 | 0.05 | 0.00 | 2.57 | 99 | 1007.5 |
| 20260506022810 | 10 | 177 | 8.0 | 11.3 | 0.05 | 0.00 | 2.57 | 99 | 1007.5 |
| 20260506022610 | 10 | 177 | 8.0 | 12.9 | 0.05 | 0.00 | 2.57 | 99 | 1007.5 |
| 20260506022410 | 10 | 172 | 8.0 | 12.9 | 0.00 | 0.00 | 2.57 | 99 | 1007.8 |
| 20260506022210 | 10 | 189 | 9.7 | 12.9 | 0.05 | 0.00 | 2.57 | 99 | 1007.5 |
| 20260506022017 | 10 | 179 | 9.7 | 12.9 | 0.05 | 0.00 | 2.57 | 99 | 1007.8 |
| 20260506021811 | 10 | 188 | 8.0 | 12.9 | 0.05 | 0.00 | 2.57 | 99 | 1007.5 |
| 20260506021610 | 10 | 180 | 8.0 | 11.3 | 0.05 | 0.00 | 2.57 | 99 | 1007.5 |
| 20260506021410 | 10 | 172 | 9.7 | 9.7 | 0.05 | 0.00 | 2.57 | 99 | 1007.5 |
| 20260506021210 | 10 | 175 | 4.8 | 14.5 | 0.05 | 0.00 | 2.57 | 99 | 1007.5 |
| 20260506021017 | 10 | 191 | 9.7 | 11.3 | 0.05 | 0.00 | 2.57 | 99 | 1007.5 |
| 20260506020810 | 10 | 177 | 6.4 | 9.7 | 0.05 | 0.00 | 2.57 | 99 | 1007.5 |
| 20260506020610 | 10 | 177 | 6.4 | 12.9 | 0.05 | 0.00 | 2.57 | 99 | 1007.5 |
| 20260506020410 | 10 | 174 | 9.7 | 11.3 | 0.05 | 0.00 | 2.57 | 99 | 1007.5 |
| 20260506020210 | 10 | 163 | 8.0 | 9.7 | 0.00 | 0.00 | 2.57 | 99 | 1007.5 |
| 20260506020033 | 10 | 179 | 6.4 | 11.3 | 0.00 | 0.00 | 2.57 | 99 | 1007.5 |
| 20260506015810 | 10 | 173 | 8.0 | 12.9 | 0.00 | 0.00 | 2.57 | 99 | 1007.5 |
| 20260506015610 | 10 | 182 | 8.0 | 14.5 | 0.00 | 0.00 | 2.57 | 99 | 1007.5 |
| 20260506015410 | 10 | 177 | 9.7 | 12.9 | 0.00 | 0.00 | 2.57 | 99 | 1007.5 |
| 20260506015210 | 10 | 183 | 6.4 | 11.3 | 0.00 | 0.00 | 2.57 | 99 | 1007.5 |
| 20260506015015 | 10 | 184 | 9.7 | 12.9 | 0.00 | 0.00 | 2.57 | 99 | 1007.5 |
| 20260506014810 | 10 | 178 | 9.7 | 11.3 | 0.00 | 0.00 | 2.57 | 99 | 1007.5 |
| 20260506014610 | 10 | 180 | 8.0 | 11.3 | 0.00 | 0.00 | 2.57 | 99 | 1007.5 |
| 20260506014410 | 10 | 172 | 9.7 | 11.3 | 0.00 | 0.00 | 2.57 | 99 | 1007.5 |
| 20260506014210 | 10 | 185 | 8.0 | 9.7 | 0.00 | 0.00 | 2.57 | 99 | 1007.5 |
| 20260506013812 | 10 | 179 | 9.7 | 11.3 | 0.00 | 0.00 | 2.57 | 99 | 1007.5 |
| 20260506013610 | 10 | 181 | 8.0 | 12.9 | 0.00 | 0.00 | 2.57 | 99 | 1007.5 |
| 20260506013411 | 10 | 181 | 6.4 | 11.3 | 0.00 | 0.00 | 2.57 | 99 | 1007.5 |
| 20260506013210 | 10 | 184 | 9.7 | 11.3 | 0.00 | 0.00 | 2.57 | 99 | 1007.5 |
| 20260506013023 | 10 | 180 | 9.7 | 11.3 | 0.05 | 0.00 | 2.57 | 99 | 1007.5 |
| 20260506012810 | 10 | 180 | 8.0 | 11.3 | 0.05 | 0.00 | 2.57 | 99 | 1007.5 |
| 20260506012610 | 10 | 186 | 9.7 | 12.9 | 0.05 | 0.00 | 2.57 | 99 | 1007.5 |
| 20260506012409 | 10 | 161 | 8.0 | 12.9 | 0.05 | 0.00 | 2.57 | 99 | 1007.5 |
| 20260506012210 | 10 | 177 | 8.0 | 11.3 | 0.05 | 0.00 | 2.57 | 99 | 1007.1 |
| 20260506012016 | 11 | 178 | 9.7 | 12.9 | 0.00 | 0.00 | 1.93 | 99 | 1007.5 |
| 20260506011810 | 11 | 186 | 9.7 | 14.5 | 0.00 | 0.00 | 1.93 | 99 | 1007.5 |
| 20260506011610 | 11 | 173 | 6.4 | 12.9 | 0.00 | 0.00 | 1.93 | 99 | 1007.5 |
| 20260506011210 | 11 | 179 | 9.7 | 11.3 | 0.05 | 0.00 | 1.93 | 99 | 1007.5 |
| 20260506010810 | 11 | 176 | 8.0 | 11.3 | 0.05 | 0.00 | 1.93 | 99 | 1007.5 |
| 20260506010610 | 11 | 170 | 9.7 | 12.9 | 0.05 | 0.00 | 1.93 | 99 | 1007.5 |
| 20260506010410 | 11 | 182 | 9.7 | 11.3 | 0.00 | 0.00 | 1.93 | 99 | 1007.5 |
| 20260506010213 | 11 | 175 | 9.7 | 11.3 | 0.05 | 0.00 | 1.93 | 99 | 1007.5 |
| 20260506010034 | 11 | 180 | 9.7 | 11.3 | 0.05 | 0.00 | 1.93 | 99 | 1007.5 |
| 20260506005610 | 11 | 181 | 9.7 | 11.3 | 0.05 | 0.00 | 1.93 | 99 | 1007.5 |
| 20260506005410 | 11 | 178 | 8.0 | 12.9 | 0.05 | 0.00 | 1.93 | 99 | 1007.5 |
| 20260506005018 | 11 | 177 | 9.7 | 11.3 | 0.05 | 0.00 | 1.93 | 99 | 1007.5 |
| 20260506004811 | 11 | 180 | 8.0 | 12.9 | 0.05 | 0.00 | 1.93 | 99 | 1007.5 |
| 20260506004610 | 11 | 177 | 8.0 | 11.3 | 0.05 | 0.00 | 1.93 | 99 | 1007.5 |
| 20260506004410 | 11 | 177 | 9.7 | 12.9 | 0.05 | 0.00 | 1.93 | 99 | 1007.5 |
| 20260506004210 | 11 | 176 | 9.7 | 12.9 | 0.05 | 0.00 | 1.93 | 99 | 1007.5 |
| 20260506004016 | 11 | 174 | 6.4 | 12.9 | 0.05 | 0.00 | 1.93 | 99 | 1007.5 |
| 20260506003810 | 11 | 182 | 8.0 | 12.9 | 0.13 | 0.00 | 1.93 | 99 | 1007.5 |
| 20260506003610 | 11 | 175 | 9.7 | 12.9 | 0.05 | 0.00 | 1.93 | 99 | 1007.1 |
| 20260506003412 | 11 | 182 | 8.0 | 11.3 | 0.13 | 0.00 | 1.93 | 99 | 1007.5 |
| 20260506003211 | 11 | 181 | 6.4 | 14.5 | 0.05 | 0.00 | 1.93 | 99 | 1007.5 |
| 20260506002811 | 11 | 176 | 8.0 | 12.9 | 0.05 | 0.00 | 1.93 | 99 | 1007.5 |
| 20260506002610 | 11 | 172 | 8.0 | 12.9 | 0.05 | 0.00 | 1.93 | 99 | 1007.5 |
| 20260506002210 | 11 | 177 | 8.0 | 11.3 | 0.13 | 0.00 | 1.93 | 99 | 1007.5 |
| 20260506002018 | 11 | 173 | 8.0 | 12.9 | 0.13 | 0.00 | 1.93 | 99 | 1007.5 |
| 20260506001810 | 11 | 180 | 9.7 | 12.9 | 0.13 | 0.00 | 1.93 | 99 | 1007.5 |
| 20260506001611 | 11 | 172 | 9.7 | 12.9 | 0.13 | 0.00 | 1.93 | 99 | 1007.5 |
| 20260506001210 | 11 | 184 | 9.7 | 14.5 | 0.13 | 0.00 | 1.27 | 99 | 1007.5 |
| 20260506001017 | 11 | 161 | 6.4 | 14.5 | 0.13 | 0.00 | 1.27 | 99 | 1007.5 |
| 20260506000811 | 11 | 183 | 9.7 | 11.3 | 0.13 | 0.00 | 1.27 | 99 | 1007.5 |
| 20260506000611 | 11 | 160 | 8.0 | 14.5 | 0.13 | 0.00 | 1.27 | 99 | 1007.8 |
| 20260506000212 | 11 | 184 | 9.7 | 12.9 | 0.13 | 0.00 | 1.27 | 99 | 1007.5 |
| 20260506000037 | 11 | 176 | 11.3 | 17.7 | 0.13 | 0.00 | 1.27 | 99 | 1007.5 |
| 20260505235810 | 11 | 171 | 11.3 | 12.9 | 0.13 | 0.00 | 1.27 | 99 | 1007.5 |
| 20260505235611 | 11 | 174 | 11.3 | 11.3 | 0.18 | 0.00 | 1.27 | 99 | 1007.5 |
| 20260505235210 | 11 | 175 | 8.0 | 12.9 | 0.18 | 0.00 | 1.27 | 99 | 1007.5 |
| 20260505235016 | 11 | 163 | 9.7 | 12.9 | 0.18 | 0.00 | 1.27 | 99 | 1007.8 |
| 20260505234812 | 11 | 188 | 9.7 | 12.9 | 0.18 | 0.00 | 1.27 | 99 | 1007.5 |
| 20260505234610 | 11 | 175 | 9.7 | 14.5 | 0.13 | 0.00 | 0.64 | 99 | 1007.5 |
| 20260505234410 | 11 | 172 | 9.7 | 12.9 | 0.05 | 0.00 | 0.64 | 99 | 1007.5 |
| 20260505234210 | 11 | 169 | 8.0 | 12.9 | 0.13 | 0.00 | 0.64 | 99 | 1007.5 |
| 20260505233810 | 11 | 184 | 9.7 | 12.9 | 0.05 | 0.00 | 0.64 | 99 | 1007.5 |
| 20260505233611 | 11 | 176 | 4.8 | 12.9 | 0.05 | 0.00 | 0.64 | 99 | 1007.5 |
| 20260505233410 | 11 | 144 | 8.0 | 11.3 | 0.05 | 0.00 | 0.64 | 99 | 1007.5 |
| 20260505233210 | 11 | 186 | 9.7 | 11.3 | 0.05 | 0.00 | 0.64 | 99 | 1007.5 |
| 20260505233023 | 11 | 168 | 6.4 | 9.7 | 0.13 | 0.00 | 0.64 | 99 | 1007.5 |
| 20260505232811 | 11 | 180 | 8.0 | 12.9 | 0.13 | 0.00 | 0.64 | 99 | 1007.5 |
| 20260505232610 | 11 | 175 | 11.3 | 12.9 | 0.13 | 0.00 | 0.64 | 99 | 1007.5 |
| 20260505232411 | 11 | 178 | 9.7 | 14.5 | 0.13 | 0.00 | 0.64 | 99 | 1007.8 |
| 20260505232210 | 11 | 174 | 6.4 | 14.5 | 0.05 | 0.00 | 0.64 | 99 | 1007.5 |
| 20260505232016 | 11 | 160 | 11.3 | 14.5 | 0.05 | 0.00 | 0.64 | 99 | 1007.5 |
| 20260505231810 | 11 | 176 | 8.0 | 12.9 | 0.05 | 0.00 | 0.64 | 99 | 1007.5 |
| 20260505231610 | 11 | 178 | 9.7 | 14.5 | 0.05 | 0.00 | 0.64 | 99 | 1007.5 |
| 20260505231410 | 11 | 180 | 9.7 | 17.7 | 0.05 | 0.00 | 0.64 | 99 | 1007.5 |
| 20260505231210 | 11 | 179 | 8.0 | 17.7 | 0.05 | 0.00 | 0.64 | 98 | 1007.5 |
| 20260505231018 | 11 | 130 | 6.4 | 14.5 | 0.05 | 0.00 | 0.64 | 98 | 1007.5 |
| 20260505230810 | 11 | 179 | 12.9 | 14.5 | 0.00 | 0.00 | 0.00 | 98 | 1007.8 |
| 20260505230610 | 11 | 150 | 9.7 | 12.9 | 0.00 | 0.00 | 0.00 | 98 | 1007.8 |
| 20260505230410 | 11 | 194 | 9.7 | 12.9 | 0.05 | 0.00 | 0.00 | 98 | 1007.5 |
| 20260505230210 | 11 | 87 | 6.4 | 16.1 | 0.05 | 0.00 | 0.00 | 98 | 1007.8 |
| 20260505230032 | 11 | 175 | 11.3 | 14.5 | 0.05 | 0.00 | 0.00 | 98 | 1007.8 |
| 20260505225811 | 11 | 146 | 9.7 | 12.9 | 0.05 | 0.00 | 0.00 | 98 | 1007.8 |
| 20260505225610 | 11 | 183 | 6.4 | 12.9 | 0.05 | 0.00 | 0.00 | 98 | 1007.5 |
| 20260505225410 | 11 | 173 | 9.7 | 14.5 | 0.00 | 0.00 | 0.00 | 98 | 1007.5 |
| 20260505225210 | 11 | 176 | 12.9 | 14.5 | 0.00 | 0.00 | 0.00 | 99 | 1007.5 |
| 20260505225017 | 11 | 162 | 9.7 | 14.5 | 0.00 | 0.00 | 0.00 | 98 | 1007.5 |
| 20260505224611 | 11 | 180 | 8.0 | 12.9 | 0.00 | 0.00 | 0.00 | 98 | 1007.5 |
| 20260505224410 | 11 | 177 | 9.7 | 12.9 | 0.00 | 0.00 | 0.00 | 98 | 1007.8 |
| 20260505224210 | 11 | 186 | 9.7 | 11.3 | 0.00 | 0.00 | 0.00 | 98 | 1007.5 |
| 20260505224016 | 11 | 180 | 6.4 | 12.9 | 0.00 | 0.00 | 0.00 | 98 | 1007.8 |
| 20260505223410 | 11 | 174 | 8.0 | 9.7 | 0.00 | 0.00 | 0.00 | 98 | 1007.5 |
| 20260505223212 | 11 | 179 | 9.7 | 11.3 | 0.05 | 0.00 | 0.00 | 98 | 1007.8 |
| 20260505223023 | 11 | 178 | 6.4 | 11.3 | 0.05 | 0.00 | 0.00 | 98 | 1007.5 |
| 20260505222811 | 11 | 179 | 6.4 | 11.3 | 0.05 | 0.00 | 0.00 | 98 | 1007.5 |
| 20260505222610 | 11 | 175 | 6.4 | 11.3 | 0.05 | 0.00 | 0.00 | 98 | 1007.5 |
| 20260505222410 | 11 | 167 | 6.4 | 11.3 | 0.05 | 0.00 | 0.00 | 98 | 1007.5 |
| 20260505222210 | 11 | 164 | 8.0 | 12.9 | 0.00 | 0.00 | 0.00 | 99 | 1007.5 |
| 20260505222017 | 11 | 177 | 6.4 | 14.5 | 0.00 | 0.00 | 0.00 | 99 | 1007.8 |
| 20260505221639 | 11 | 186 | 6.4 | 11.3 | 0.00 | 0.00 | 0.00 | 99 | 1007.5 |
| 20260505221427 | 11 | 172 | 9.7 | 11.3 | 0.05 | 0.00 | 0.00 | 99 | 1007.5 |
| 20260505221109 | 11 | 168 | 9.7 | 9.7 | 0.05 | 0.00 | 0.00 | 99 | 1007.8 |
| 20260505220423 | 11 | 168 | 9.7 | 9.7 | 0.05 | 0.00 | 0.00 | 99 | 1007.8 |
| 20260505214826 | 12 | 185 | 6.4 | 11.3 | 0.13 | 0.00 | 5.79 | 98 | 1007.5 |
| 20260505214048 | 12 | 180 | 8.0 | 12.9 | 0.13 | 0.00 | 5.79 | 98 | 1007.8 |
| 20260505212448 | 12 | 180 | 8.0 | 9.7 | 0.25 | 0.00 | 5.16 | 98 | 1007.5 |
| 20260505212026 | 12 | 173 | 9.7 | 9.7 | 0.25 | 0.00 | 5.16 | 98 | 1007.5 |
| 20260505211048 | 12 | 180 | 8.0 | 9.7 | 0.25 | 0.00 | 4.50 | 98 | 1007.5 |
| 20260505210840 | 12 | 182 | 9.7 | 9.7 | 0.30 | 0.00 | 4.50 | 98 | 1007.5 |
| 20260505205824 | 12 | 181 | 9.7 | 9.7 | 0.18 | 0.00 | 3.86 | 98 | 1007.8 |
| 20260505205230 | 12 | 172 | 8.0 | 11.3 | 0.13 | 0.00 | 3.86 | 98 | 1007.8 |
| 20260505203811 | 12 | 175 | 8.0 | 9.7 | 0.05 | 0.00 | 3.23 | 98 | 1007.8 |
| 20260505203629 | 12 | 180 | 6.4 | 9.7 | 0.05 | 0.00 | 3.23 | 98 | 1007.5 |
| 20260505203423 | 12 | 168 | 6.4 | 9.7 | 0.05 | 0.00 | 3.23 | 98 | 1007.8 |
| 20260505202410 | 12 | 179 | 6.4 | 11.3 | 0.00 | 0.00 | 3.23 | 98 | 1007.5 |
| 20260505202216 | 12 | 185 | 9.7 | 12.9 | 0.00 | 0.00 | 3.23 | 98 | 1007.5 |
| 20260505201836 | 12 | 184 | 8.0 | 9.7 | 0.05 | 0.00 | 3.23 | 98 | 1007.5 |
| 20260505201610 | 12 | 174 | 4.8 | 9.7 | 0.05 | 0.00 | 3.23 | 98 | 1007.5 |
| 20260505201411 | 12 | 168 | 6.4 | 11.3 | 0.05 | 0.00 | 3.23 | 98 | 1007.5 |
| 20260505200855 | 12 | 183 | 6.4 | 8.0 | 0.00 | 0.00 | 3.23 | 98 | 1007.5 |
| 20260505200217 | 12 | 180 | 6.4 | 11.3 | 0.00 | 0.00 | 3.23 | 98 | 1007.5 |
| 20260505200049 | 12 | 217 | 11.3 | 11.3 | 0.00 | 0.00 | 3.23 | 98 | 1007.5 |
| 20260505195238 | 12 | 171 | 9.7 | 9.7 | 0.00 | 0.00 | 3.23 | 98 | 1007.1 |
| 20260505194811 | 12 | 177 | 6.4 | 11.3 | 0.00 | 0.00 | 3.23 | 98 | 1007.5 |
| 20260505194610 | 12 | 186 | 8.0 | 9.7 | 0.00 | 0.00 | 3.23 | 98 | 1007.1 |
| 20260505194210 | 12 | 190 | 9.7 | 11.3 | 0.00 | 0.00 | 3.23 | 98 | 1007.1 |
| 20260505194017 | 12 | 181 | 8.0 | 8.0 | 0.00 | 0.00 | 3.23 | 98 | 1007.1 |
| 20260505193810 | 12 | 178 | 8.0 | 11.3 | 0.00 | 0.00 | 3.23 | 98 | 1007.1 |
| 20260505193610 | 12 | 167 | 6.4 | 9.7 | 0.00 | 0.00 | 3.23 | 98 | 1007.1 |
| 20260505193410 | 12 | 157 | 9.7 | 12.9 | 0.00 | 0.00 | 3.23 | 98 | 1007.1 |
| 20260505193210 | 12 | 191 | 4.8 | 8.0 | 0.00 | 0.00 | 3.23 | 98 | 1007.1 |
| 20260505193023 | 12 | 162 | 4.8 | 8.0 | 0.00 | 0.00 | 3.23 | 98 | 1007.1 |
| 20260505192811 | 12 | 184 | 8.0 | 9.7 | 0.00 | 0.00 | 3.23 | 98 | 1007.1 |
| 20260505192609 | 12 | 167 | 6.4 | 12.9 | 0.00 | 0.00 | 3.23 | 98 | 1007.1 |
| 20260505192210 | 12 | 174 | 6.4 | 12.9 | 0.05 | 0.00 | 3.23 | 98 | 1006.8 |
| 20260505191810 | 12 | 183 | 8.0 | 9.7 | 0.05 | 0.00 | 3.23 | 98 | 1006.8 |
| 20260505191410 | 12 | 179 | 6.4 | 9.7 | 0.00 | 0.00 | 3.23 | 98 | 1007.1 |
| 20260505191210 | 12 | 180 | 9.7 | 11.3 | 0.00 | 0.00 | 3.23 | 98 | 1006.8 |
| 20260505191017 | 12 | 186 | 6.4 | 11.3 | 0.05 | 0.00 | 3.23 | 98 | 1006.8 |
| 20260505190811 | 12 | 183 | 9.7 | 11.3 | 0.05 | 0.00 | 3.23 | 98 | 1006.8 |
| 20260505190610 | 12 | 172 | 8.0 | 11.3 | 0.05 | 0.00 | 3.23 | 98 | 1007.1 |
| 20260505190410 | 12 | 163 | 11.3 | 12.9 | 0.05 | 0.00 | 3.23 | 98 | 1006.8 |
| 20260505190210 | 12 | 190 | 9.7 | 9.7 | 0.00 | 0.00 | 3.23 | 98 | 1006.8 |
| 20260505190035 | 12 | 192 | 6.4 | 12.9 | 0.00 | 0.00 | 3.23 | 98 | 1006.8 |
| 20260505185810 | 12 | 175 | 6.4 | 11.3 | 0.00 | 0.00 | 3.23 | 98 | 1006.8 |
| 20260505185610 | 12 | 182 | 9.7 | 11.3 | 0.00 | 0.00 | 3.23 | 98 | 1006.8 |
| 20260505185410 | 12 | 182 | 9.7 | 9.7 | 0.00 | 0.00 | 3.23 | 98 | 1006.8 |
| 20260505185016 | 12 | 191 | 9.7 | 9.7 | 0.00 | 0.00 | 3.23 | 98 | 1007.1 |
| 20260505184810 | 12 | 180 | 9.7 | 9.7 | 0.00 | 0.00 | 3.23 | 98 | 1006.8 |
| 20260505184610 | 12 | 181 | 8.0 | 9.7 | 0.00 | 0.00 | 3.23 | 98 | 1006.8 |
| 20260505184410 | 12 | 179 | 6.4 | 9.7 | 0.05 | 0.00 | 3.23 | 98 | 1006.8 |
| 20260505184211 | 12 | 172 | 6.4 | 11.3 | 0.05 | 0.00 | 3.23 | 98 | 1006.8 |
| 20260505184018 | 12 | 165 | 6.4 | 12.9 | 0.05 | 0.00 | 3.23 | 98 | 1006.8 |
| 20260505183810 | 12 | 183 | 8.0 | 9.7 | 0.05 | 0.00 | 3.23 | 98 | 1006.8 |
| 20260505183610 | 12 | 140 | 6.4 | 9.7 | 0.05 | 0.00 | 3.23 | 98 | 1006.8 |
| 20260505183410 | 12 | 182 | 8.0 | 9.7 | 0.00 | 0.00 | 3.23 | 98 | 1006.8 |
| 20260505183210 | 12 | 182 | 8.0 | 9.7 | 0.00 | 0.00 | 3.23 | 98 | 1006.8 |
| 20260505183025 | 12 | 171 | 8.0 | 9.7 | 0.00 | 0.00 | 3.23 | 98 | 1006.8 |
| 20260505182810 | 12 | 177 | 9.7 | 12.9 | 0.00 | 0.00 | 3.23 | 98 | 1006.8 |
| 20260505182610 | 12 | 214 | 11.3 | 12.9 | 0.00 | 0.00 | 3.23 | 98 | 1006.8 |
| 20260505182411 | 12 | 170 | 6.4 | 9.7 | 0.00 | 0.00 | 3.23 | 98 | 1006.4 |
| 20260505182210 | 12 | 180 | 6.4 | 12.9 | 0.00 | 0.00 | 3.23 | 98 | 1006.4 |
| 20260505182016 | 12 | 171 | 8.0 | 9.7 | 0.00 | 0.00 | 3.23 | 98 | 1006.4 |
| 20260505181810 | 12 | 159 | 8.0 | 8.0 | 0.00 | 0.00 | 3.23 | 98 | 1006.8 |
| 20260505181610 | 12 | 153 | 4.8 | 11.3 | 0.00 | 0.00 | 3.23 | 98 | 1006.8 |
| 20260505181410 | 12 | 179 | 6.4 | 9.7 | 0.00 | 0.00 | 3.23 | 98 | 1006.8 |
| 20260505181211 | 12 | 176 | 8.0 | 9.7 | 0.00 | 0.00 | 3.23 | 98 | 1006.8 |
| 20260505181016 | 12 | 180 | 6.4 | 8.0 | 0.00 | 0.00 | 3.23 | 98 | 1006.8 |
| 20260505180810 | 12 | 180 | 4.8 | 9.7 | 0.00 | 0.00 | 3.23 | 98 | 1006.8 |
| 20260505180611 | 12 | 188 | 9.7 | 9.7 | 0.00 | 0.00 | 3.23 | 98 | 1006.8 |
| 20260505180410 | 12 | 165 | 6.4 | 9.7 | 0.00 | 0.00 | 3.23 | 98 | 1006.8 |
| 20260505180210 | 12 | 142 | 9.7 | 12.9 | 0.00 | 0.00 | 3.23 | 98 | 1006.8 |
| 20260505180034 | 12 | 185 | 9.7 | 9.7 | 0.00 | 0.00 | 3.23 | 98 | 1006.8 |
| 20260505175810 | 12 | 171 | 6.4 | 9.7 | 0.00 | 0.00 | 3.23 | 98 | 1006.8 |
| 20260505175610 | 12 | 182 | 8.0 | 9.7 | 0.00 | 0.00 | 3.23 | 98 | 1006.8 |
| 20260505175210 | 12 | 181 | 6.4 | 9.7 | 0.00 | 0.00 | 3.23 | 98 | 1006.8 |
| 20260505175016 | 12 | 174 | 9.7 | 12.9 | 0.00 | 0.00 | 3.23 | 98 | 1006.8 |
| 20260505174810 | 12 | 207 | 9.7 | 11.3 | 0.00 | 0.00 | 3.23 | 98 | 1006.4 |
| 20260505174610 | 12 | 147 | 8.0 | 11.3 | 0.00 | 0.00 | 3.23 | 98 | 1006.8 |
| 20260505174410 | 12 | 180 | 8.0 | 9.7 | 0.00 | 0.00 | 3.23 | 98 | 1006.8 |
| 20260505174211 | 12 | 178 | 6.4 | 9.7 | 0.00 | 0.00 | 3.23 | 98 | 1006.8 |
| 20260505173809 | 12 | 176 | 6.4 | 9.7 | 0.00 | 0.00 | 3.23 | 97 | 1006.8 |
| 20260505173610 | 12 | 168 | 6.4 | 9.7 | 0.00 | 0.00 | 3.23 | 97 | 1006.8 |
| 20260505173410 | 12 | 184 | 9.7 | 12.9 | 0.00 | 0.00 | 3.23 | 97 | 1006.8 |
| 20260505173210 | 12 | 162 | 6.4 | 9.7 | 0.00 | 0.00 | 3.23 | 97 | 1006.8 |
| 20260505173025 | 12 | 160 | 4.8 | 9.7 | 0.00 | 0.00 | 3.23 | 97 | 1006.8 |
| 20260505172809 | 12 | 192 | 9.7 | 9.7 | 0.00 | 0.00 | 3.23 | 97 | 1006.8 |
| 20260505172610 | 12 | 186 | 6.4 | 9.7 | 0.00 | 0.00 | 3.23 | 97 | 1006.8 |
| 20260505172410 | 12 | 153 | 4.8 | 9.7 | 0.00 | 0.00 | 3.23 | 97 | 1006.8 |
| 20260505172210 | 12 | 180 | 9.7 | 9.7 | 0.00 | 0.00 | 3.23 | 97 | 1006.8 |
| 20260505172016 | 12 | 189 | 4.8 | 11.3 | 0.00 | 0.00 | 3.23 | 97 | 1006.8 |
| 20260505171810 | 12 | 180 | 6.4 | 11.3 | 0.00 | 0.00 | 3.23 | 97 | 1006.8 |
| 20260505171610 | 12 | 196 | 9.7 | 9.7 | 0.00 | 0.00 | 3.23 | 97 | 1006.8 |
| 20260505171410 | 12 | 162 | 4.8 | 12.9 | 0.05 | 0.00 | 3.23 | 97 | 1006.8 |
| 20260505171210 | 12 | 160 | 9.7 | 12.9 | 0.05 | 0.00 | 3.23 | 97 | 1006.8 |
| 20260505171017 | 12 | 168 | 6.4 | 14.5 | 0.05 | 0.00 | 3.23 | 97 | 1006.8 |
| 20260505170810 | 12 | 187 | 9.7 | 9.7 | 0.05 | 0.00 | 3.23 | 97 | 1006.8 |
| 20260505170410 | 12 | 160 | 8.0 | 11.3 | 0.00 | 0.00 | 3.23 | 97 | 1006.8 |
| 20260505170210 | 12 | 171 | 8.0 | 9.7 | 0.00 | 0.00 | 3.23 | 97 | 1007.1 |
| 20260505165810 | 12 | 212 | 9.7 | 11.3 | 0.00 | 0.00 | 3.23 | 97 | 1006.8 |
| 20260505165610 | 12 | 173 | 4.8 | 9.7 | 0.00 | 0.00 | 3.23 | 97 | 1006.8 |
| 20260505165412 | 12 | 196 | 9.7 | 9.7 | 0.00 | 0.00 | 3.23 | 97 | 1007.1 |
| 20260505165016 | 12 | 168 | 4.8 | 9.7 | 0.00 | 0.00 | 3.23 | 97 | 1006.8 |
| 20260505164810 | 12 | 136 | 6.4 | 17.7 | 0.00 | 0.00 | 3.23 | 97 | 1006.8 |
| 20260505164610 | 12 | 167 | 8.0 | 9.7 | 0.00 | 0.00 | 3.23 | 97 | 1006.8 |
| 20260505164410 | 12 | 166 | 6.4 | 11.3 | 0.00 | 0.00 | 3.23 | 97 | 1006.8 |
| 20260505164210 | 12 | 182 | 8.0 | 9.7 | 0.00 | 0.00 | 3.23 | 97 | 1006.8 |
| 20260505163410 | 12 | 184 | 8.0 | 9.7 | 0.00 | 0.00 | 3.23 | 97 | 1006.8 |
| 20260505163210 | 12 | 187 | 6.4 | 9.7 | 0.00 | 0.00 | 3.23 | 97 | 1006.8 |
| 20260505163026 | 12 | 191 | 6.4 | 14.5 | 0.00 | 0.00 | 3.23 | 97 | 1006.4 |
| 20260505162810 | 12 | 181 | 6.4 | 9.7 | 0.00 | 0.00 | 3.23 | 97 | 1006.8 |
| 20260505162609 | 12 | 183 | 6.4 | 9.7 | 0.00 | 0.00 | 3.23 | 97 | 1006.8 |
| 20260505162410 | 12 | 171 | 6.4 | 11.3 | 0.00 | 0.00 | 3.23 | 97 | 1006.8 |
| 20260505162210 | 12 | 172 | 8.0 | 9.7 | 0.00 | 0.00 | 3.23 | 97 | 1006.8 |
| 20260505162017 | 12 | 193 | 6.4 | 12.9 | 0.00 | 0.00 | 3.23 | 97 | 1006.8 |
| 20260505161810 | 12 | 161 | 8.0 | 9.7 | 0.00 | 0.00 | 3.23 | 97 | 1006.8 |
| 20260505161410 | 12 | 177 | 6.4 | 9.7 | 0.00 | 0.00 | 3.23 | 97 | 1006.8 |
| 20260505161210 | 12 | 129 | 9.7 | 11.3 | 0.00 | 0.00 | 3.23 | 97 | 1006.8 |
| 20260505161017 | 12 | 187 | 6.4 | 9.7 | 0.00 | 0.00 | 3.23 | 97 | 1006.8 |
| 20260505160610 | 12 | 176 | 6.4 | 16.1 | 0.05 | 0.00 | 3.23 | 97 | 1006.8 |
| 20260505160411 | 12 | 180 | 6.4 | 9.7 | 0.05 | 0.00 | 3.23 | 97 | 1006.8 |
| 20260505160210 | 12 | 203 | 8.0 | 9.7 | 0.05 | 0.00 | 3.23 | 97 | 1006.8 |
| 20260505153210 | 13 | 183 | 6.4 | 12.9 | 0.05 | 0.00 | 3.23 | 97 | 1006.8 |
| 20260505153026 | 13 | 157 | 9.7 | 12.9 | 0.05 | 0.00 | 3.23 | 97 | 1006.4 |
| 20260505152610 | 13 | 221 | 8.0 | 11.3 | 0.05 | 0.00 | 3.23 | 97 | 1006.8 |
| 20260505152410 | 13 | 166 | 9.7 | 11.3 | 0.05 | 0.00 | 2.57 | 97 | 1006.8 |
| 20260505152210 | 13 | 164 | 9.7 | 12.9 | 0.05 | 0.00 | 2.57 | 97 | 1006.8 |
| 20260505152016 | 13 | 169 | 8.0 | 9.7 | 0.05 | 0.00 | 2.57 | 97 | 1006.8 |
| 20260505151810 | 13 | 188 | 8.0 | 9.7 | 0.05 | 0.00 | 2.57 | 97 | 1006.8 |
| 20260505151610 | 13 | 188 | 9.7 | 9.7 | 0.05 | 0.00 | 2.57 | 97 | 1006.8 |
| 20260505151410 | 13 | 143 | 4.8 | 9.7 | 0.05 | 0.00 | 2.57 | 97 | 1006.8 |
| 20260505151210 | 13 | 167 | 4.8 | 12.9 | 0.05 | 0.00 | 2.57 | 97 | 1006.8 |
| 20260505151018 | 13 | 177 | 6.4 | 11.3 | 0.05 | 0.00 | 2.57 | 97 | 1006.8 |
| 20260505150810 | 13 | 179 | 4.8 | 9.7 | 0.05 | 0.00 | 2.57 | 97 | 1007.1 |
| 20260505150610 | 13 | 182 | 8.0 | 9.7 | 0.13 | 0.00 | 2.57 | 97 | 1006.8 |
| 20260505150410 | 13 | 167 | 9.7 | 11.3 | 0.13 | 0.00 | 2.57 | 97 | 1006.8 |
| 20260505150210 | 13 | 182 | 6.4 | 11.3 | 0.13 | 0.00 | 2.57 | 97 | 1006.8 |
| 20260505140610 | 13 | 158 | 6.4 | 11.3 | 0.13 | 0.00 | 1.27 | 96 | 1006.8 |
| 20260505140410 | 13 | 165 | 6.4 | 12.9 | 0.13 | 0.00 | 1.27 | 96 | 1006.8 |
| 20260505140210 | 13 | 187 | 9.7 | 9.7 | 0.05 | 0.00 | 1.27 | 96 | 1006.8 |
| 20260505124810 | 14 | 187 | 4.8 | 9.7 | 0.05 | 0.00 | 0.00 | 94 | 1006.8 |